Other Public Products
Issued by NWS Grand Forks, ND

Home | Current Version | Previous Version | Text Only | Print | Product List | Glossary Off
Versions: 1 2 3 4 5 6 7 8 9 10 11 12 13 14 15 16 17 18 19 20 21 22 23 24 25 26 27 28 29 30 31 32 33 34 35 36 37 38 39 40 41 42 43 44 45 46 47 48 49 50

000
FPUS83 KFGF 310131
OPUFGF
PRAIRIE TO PINES WEATHER ROUNDUP
NATIONAL WEATHER SERVICE EASTERN NORTH DAKOTA/GRAND FORKS ND
800 PM CDT SAT JUL 30 2016

 **SATELLITE DATA USED TO AUGMENT SKY COVER AT AUTOMATED STATIONS**
 *****  WEATHER ACROSS EASTERN NORTH DAKOTA  *****

CITY           SKY/WX    TMP DP  RH WIND       PRES   REMARKS
GRAND FORKS    PTCLDY    78  62  57 SE14      29.87F
GRAND FORKS AF MOCLDY    78  62  57 S12       29.88S
GRAND CITY NWS NOT AVBL
BUXTON           N/A     76  65  67 SE13        N/A
DEVILS LAKE    MOSUNNY   77  62  59 S16       29.86F
FARGO          CLEAR     78  57  48 SE12      29.90F
WAHPETON ARPT  CLOUDY    72  55  56 SE6       29.93S
$$

 *****  WEATHER ACROSS CENTRAL AND WESTERN NORTH DAKOTA  *****

CITY           SKY/WX    TMP DP  RH WIND       PRES   REMARKS
JAMESTOWN      CLOUDY    78  62  57 SE13      29.86F
BISMARCK       SUNNY     82  65  56 SE13      29.79F
MINOT          SUNNY     86  60  41 E5        29.79F
MINOT AFB      SUNNY     82  62  49 SE5       29.78F
GARRISON         N/A     82  65  56 E6        29.79F
WILLISTON      SUNNY     85  56  37 E14       29.76F
DICKINSON      SUNNY     82  57  42 E9        29.77F
HETTINGER      SUNNY     90  54  29 SE7       29.79F
$$

 *****  OTHER OBSERVATIONS NORTHEAST NORTH DAKOTA  *****

CITY           SKY/WX    TMP DP  RH WIND       PRES   REMARKS
WALHALLA       FAIR      75  72  88 SE10      29.85S
LANGDON        FAIR      73  64  73 S9        29.87F
CAVALIER       FAIR      77  66  69 S12       29.86S
GRAFTON        FAIR      75  64  69 S9        29.88F
CANDO          FAIR      73  64  73 S13G22    29.86F
FORT TOTTEN    NOT AVBL
ROLLA          FAIR      72  66  83 S7        29.86F
RUGBY          NOT AVBL
 ***** THE ABOVE OBSERVATIONS ARE NON NWS ARE NOT QUALITY
        CONTROLLED AND MAY MIS-REPORT RAIN FOR SNOW...
$$

 *****  OTHER OBSERVATIONS SOUTHEAST NORTH DAKOTA *****

CITY           SKY/WX    TMP DP  RH WIND       PRES   REMARKS
COOPERSTOWN    NOT AVBL
VALLEY CITY    FAIR      75  61  60 SE14      29.91S
OAKES            N/A    N/A N/A N/A MISG        N/A
GWINNER        FAIR      75  63  64 SE14      29.90S
SHEYENNE NWR     N/A     77  60  54 SE10      29.95S
BUFFALO          N/A     73  55  53 SE10        N/A
WYNDMERE         N/A     75  61  60 SE5         N/A
 ***** THE ABOVE OBSERVATIONS ARE NON NWS ARE NOT QUALITY
       CONTROLLED AND MAY MIS-REPORT RAIN FOR SNOW...
$$

  *****  WEATHER ACROSS NORTHERN MINNESOTA  *****

CITY           SKY/WX    TMP DP  RH WIND       PRES   REMARKS
FLAG ISLAND    PTCLDY    75  64  69 S8        29.92S
WARROAD        CLOUDY    73  66  78 S8        29.93F
ROSEAU         PTCLDY    72  64  78 S6        29.92S
HALLOCK        CLOUDY    75  64  69 S9        29.88S
THF RVR FALLS  CLOUDY    74  63  68 S6        29.94S
HALSTAD          N/A     75  61  60 S7          N/A
FOSSTON        CLEAR     72  61  68 SE6       29.96R
BAUDETTE       CLEAR     72  58  61 S8        29.95S
WASKISH        CLEAR     72  63  73 CALM      29.97S
CROOKSTON      CLOUDY    77  61  57 S12       29.91F
$$
  *****  WEATHER ACROSS CENTRAL AND WEST MINNESOTA  *****

CITY           SKY/WX    TMP DP  RH WIND       PRES   REMARKS
BEMIDJI        CLEAR     73  59  62 SE7       29.97S
PARK RAPIDS    CLEAR     76  57  51 SE6       29.97F
WADENA         CLEAR     72  59  64 S5        29.96F
DETROIT LAKES  CLEAR     73  59  60 S6        29.97S
MOORHEAD       CLEAR     75  59  57 SE8       29.92S
FERGUS FALLS   CLEAR     73  59  60 S7        29.94F
ELBOW LAKE     FAIR      69  61  75 SE5       29.96S
MORRIS MN      CLEAR     73  61  64 SE6       29.94F
STAPLES        CLEAR     73  57  56 SE3       29.97F
WHEATON        CLEAR     73  63  68 E8        29.94F
$$
  *****  WEATHER ELSEWHERE ACROSS MINNESOTA  *****

CITY           SKY/WX    TMP DP  RH WIND       PRES   REMARKS
DULUTH         PTCLDY    68  61  78 E7        30.02F
INTRNTL FALLS  CLEAR     73  60  63 SW3       29.98S
ELY            CLEAR     72  55  56 S8        30.01S
CLOQUET        CLEAR     68  59  73 E3        30.02S
BRAINERD       CLEAR     75  62  64 SE5       29.98S
HIBBING        MOCLDY    73  54  51 VRB6      30.00S
ALEXANDRIA     CLEAR     75  56  51 S8        29.98F
SAINT CLOUD    PTCLDY    77  66  68 E7        29.97S
MINNEAPOLIS    PTCLDY    77  63  61 SE6       29.98R
$$

  *****  WEATHER ACROSS SOUTH DAKOTA  *****

CITY           SKY/WX    TMP DP  RH WIND       PRES   REMARKS
SIOUX FALLS    PTCLDY    77  58  51 SE10      29.94S
BROOKINGS      CLEAR     75  59  57 SE10      29.94F
WATERTOWN      CLEAR     76  59  55 S10       29.93F
HURON          CLEAR     80  61  52 S13G22    29.86F
SISSETON         N/A     76  59  55 SE10      29.91F
ABERDEEN       PTCLDY    77  62  59 SE9       29.86F
MITCHELL       CLEAR     80  63  55 SE10      29.89F
PIERRE         SUNNY     87  61  41 SE23      29.78S
MOBRIDGE       MOSUNNY   67  60  78 E12G20    29.80S
RAPID CITY     MOSUNNY   81  61  50 SE15      29.78S
$$

  *****  SOME WEATHER IN NEARBY STATES *****

CITY           SKY/WX    TMP DP  RH WIND       PRES   REMARKS
GLASGOW MT     MOSUNNY   87  56  34 SE10      29.66F
GREAT FALLS MT SUNNY     93  31  11 W16       29.69F
CHEYENNE WY    PTSUNNY   81  54  39 S9        30.03F
SCOTTSBLUFF NE SUNNY     86  57  37 SE14      29.86F
OMAHA NE       MOCLDY    79  65  62 SE12      29.94F
DES MOINES IA  PTCLDY    78  65  63 S6        29.95S
DAVENPORT IA   CLEAR     74  68  81 NE7       29.97S
CHICAGO IL     MOCLDY    71  64  78 NE10      29.99S
EAU CLAIRE WI  CLEAR     76  63  64 SE9       29.99S
LA CROSSE WI   CLEAR     78  63  59 SE3       29.98R
$$

  *****  SOME NATIONAL WEATHER *****

CITY           SKY/WX    TMP DP  RH WIND       PRES   REMARKS
LA GUARDIA NY  LGT RAIN  77  73  87 S6        30.04S
RALEIGH NC     MOCLDY    78  75  90 W5        29.96R
ATLANTA GA     CLOUDY    77  73  87 W8        30.03R
NEW ORLEANS LA MOCLDY    87  75  67 S6        29.99S HX  96
OKLAHOMA CITY  CLOUDY    86  76  71 SE15G21   29.90R HX  96
ALBUQUERQUE NM CLOUDY    90  48  23 S24G31    30.03R
SALT LAKE CITY PTSUNNY   97  41  14 CALM      29.86F HX  92
LOS ANGELES CA MOSUNNY   73  65  75 W12       29.83F
BOISE ID       SUNNY     99  34  10 N13       29.73F HX  93
SEATTLE WA     MOSUNNY   75  55  49 SW10      29.94F
$$

*** WEATHER ACROSS MANITOBA...SASKATCHEWAN AND ONTARIO ***
                ***ONTARIO***

CITY           SKY/WX    TMP DP  RH WIND       PRES   REMARKS
GERALDTON      MOCLDY    70  48  46 S5        30.03S
THUNDER BAY    PTCLDY    68  59  73 E9        30.03S
SIOUX LOOKOUT  MOCLDY    75  55  50 S5        29.96S
TORONTO        MOCLDY    75  54  46 E10       30.01S
BIG TROUT LK   PTCLDY    72  61  68 SE2       29.86F
PICKLE LAKE    MOCLDY    79  54  41 SW8       29.95S
DRYDEN         CLOUDY    75  59  57 SW9       29.96F
KENORA         MOCLDY    72  64  78 S7        29.94S
$$
                *** MANITOBA***

CITY           SKY/WX    TMP DP  RH WIND       PRES   REMARKS
BRANDON        PTSUNNY   77  64  65 SW3       29.81F
DAUPHIN        SUNNY     77  63  61 S2        29.78R
ISLAND LAKE    NOT AVBL
PILOT MOUND      N/A     72  64  78 S9          N/A
THE PAS        MOSUNNY   77  63  61 S8        29.73S
THOMPSON       PTSUNNY   72  64  78 NE10      29.76R
WINNIPEG       MOCLDY    72  64  78 S12       29.86R
LYNN LAKE      PTSUNNY   68  59  73 MISG      29.78S
CHURCHILL      CLOUDY    50  46  87 E12       29.91F
GILLAM         PTSUNNY   68  63  83 E5        29.80F
$$
                ***SASKATCHEWAN***

CITY           SKY/WX    TMP DP  RH WIND       PRES   REMARKS
ESTEVAN        MOSUNNY   79  63  57 E7        29.79S
KINDERSLEY     MOSUNNY   77  61  57 S8        29.65F
LLOYDMINSTER   PTSUNNY   61  59  94 NE8       29.71F
PRINCE ALBERT  PTSUNNY   75  66  73 SE5       29.69F
REGINA         PTSUNNY   79  57  47 SE15      29.71F
YORKTON        SUNNY     81  59  47 S6        29.77S   C1F1C2F2C3F3C4F4C5F5C6F6C7F7C8F8C9F9CaFaCbFbCcFcCdFdCe!



USA.gov is the U.S. government's official web portal to all federal, state and local government web resources and services.